Zurück zum Katalog

NORSAT 3

AktivWissenschaftSSO
NORAD 48272·PAYLOAD·🇳🇴 Norway

Gestartet Apr 29, 2021 von Guiana Space Centre

Loading…

Nächste Überflüge (nächste 24 Stunden)

TLE

AktuellSource: Space-Track

Epoche: Sep 14, 2026, 14:20 UTC

1 48272U 21034E   26257.59789250  .00002962  00000-0  20777-3 0  9995
2 48272  97.5221 312.7192 0007394  11.4402 348.6992 15.05918861293291

Verfolge NORSAT 3 in Echtzeit mit AllMySat

Download on the App Store